Weather in Kol'skoye

Russia / Kaluga Oblast     54°09′23″N   35°21′47″E
temp.,
°C
wind,
m/s
gust,
m/s
humid.,
%
clouds,
%
prec.,
mm/h
press.,
hPa
HPBL,
m
1 december, wed
wed100:00−3wsw9167899 0.0 988999
03:00−3wsw81380100 0.1 9901002
06:00−3wsw7128581 0.1 991913
09:00−3wsw71284100 0.1 991889
12:00−2wsw71178100 0.1 9921187
15:00−3w61078100 0.1 9931053
18:00−5wnw6108188 0.1 996855
21:00−6w598499 0.1 998633
2 december, thu
thu200:00−7w498744 0.0 1000458
03:00−7w489090 0.0 1002381
06:00−7sw479197 0.0 1003264
09:00−5s51088100 0.0 1002373
12:00−3s71579100 0.0 1000700
15:00−2ssw71695100 0.6 999691
18:000ssw71596100 1.2 999634
21:00+1ssw61397100 1.3 1000572
3 december, fri
fri300:00+1sw61398100 0.0 1001532
03:00+1ssw51393100 0.0 1002380
06:00+1sw41095100 0.0 1004407
09:000s3998100 0.0 1004228
12:00+1sse51393100 0.5 1002450
15:00+2s61497100 0.5 1000725
18:00+3ssw61398100 0.8 999773
21:00+1wsw51098100 2.7 1001563
4 december, sat
sat400:000w5993100 0.6 1003523
03:00−1w5109299 0.8 1006704
06:00−3wsw5109318 0.0 1008374
09:00−3sw410925 0.0 1010361
12:00−2sw5108499 0.0 1011516
15:00−1sw5107922 0.0 1012598
18:00−2sw49888 0.0 1013383
21:00−3sw389375 0.0 1014290
5 december, sun
sun500:00−3wsw369498 0.0 1015326
03:00−2wnw2484100 0.0 1015575
06:00−2nnw1281100 0.0 1016393
09:00−2e227999 0.0 1016271
12:00−2e3377100 0.0 1017678
15:00−2ene4478100 0.0 1017631
18:00−2ene4681100 0.0 1017623
21:00−2ene587998 0.0 1017662